NOAA 16 DEB

Satellite information

Favourite Embed

Satellite Type and Status

DEBRISIN ORBIT

Key statistics

Satellite NOAA 16 DEB at a glance.

Uptime

9215

Days in orbit

Revolutions

≈ 14.1

Per day

Orbit

SSO

Sun Synchronous Orbit

Inclination

98.8

Latest

Satellite identification and parameters

Extended collection of information and parameters for NOAA 16 DEB.

Object identification

Identified? True

Debris? True

Object name: NOAA 16 DEB

International designator: 2000-055GK

Object number (NORAD): 41283

Object ID (CCSDS): 41283

Country: UNITED STATES OF AMERICA (US)

Current information (Y/N): Y

RCS size: SMALL

Orbital parameters

Period: 102.244 minutes

Inclination: 98.832 deg

SMA: 7243.028 km

Apoapsis: 907.745 km

Periapsis: 822.041 km

RAAN: 321.6211 deg

Eccentricy: 0.00591628

Argument of periapsis: 171.8955 deg

Mean anomaly: 188.3185 deg

Mean motion: 14.0838872 rev/day

Mean motion (dot): 0.00003689 rev/day2

B* drag term: 0.0021440543 1/REarth

Two-line elements (TLE)

Creation date: Dec. 10, 2025, 10:40 a.m.

Reference frame: TEME

Reference center: EARTH

Epoch: Dec. 10, 2025, 3:51 a.m. UTC

TLE line 0: 0 NOAA 16 DEB

TLE line 1: 1 41283U 00055GK 25344.16107315 .00003689 00000-0 21441-2 0 9990

TLE line 2: 2 41283 98.8320 321.6211 0059163 171.8955 188.3185 14.08388720510029

Live tracking on map

Real-time ground track for satellite NOAA 16 DEB.

In-orbit conjunctions

A list of the most updated potential collisions computed for object NOAA 16 DEB.

Target Orbit TCA Probability of collision Miss distance Type
COSMOS 2333 LEO 2025-02-18 16:23:27 0.0003035797 157.0 (m) PAYLOAD
METEOR 1-27 LEO 2024-08-24 00:17:00 0.0001063837 375.0 (m) PAYLOAD

Associated space launch

The NOAA K, L and M POES satellites begin the fifth generation of improved environmental monitoring in support of NOAA missions. The instrument payload has significant improvements and additions/deletions. The instrument changes have effected the spacecraft subsystems and data formats.

NOAA 16 DEB was lifted into orbit during the mission ‘Titan II SLV | NOAA 16’, on board a Titan II SLV space rocket.

The launch took place on Sept. 21, 2000, 10:22 a.m. from Space Launch Complex 4W.

For more information about the launch, click the button.

Launch to space Titan II SLV | NOAA 16
Titan II SLV | NOAA 16

Agency: N/A

Status: Launch Successful

Launch date: Sept. 21, 2000, 10:22 a.m. UTC

Rocket: Titan II SLV

Launch pad: Space Launch Complex 4W

Location: Vandenberg SFB, CA, USA

...

Latest news about this satellite

There are no fresh news available about this satellite. Check back as we update our databases every day.


Newsletter sign-up

Weekly statistics, charts and insights to help you stay on top of the space industry.